Weather in Snovskoye

Russia / Bryansk Oblast     52°29′20″N   32°04′17″E
temp.,
°C
wind,
m/s
gust,
m/s
humid.,
%
clouds,
%
prec.,
mm/h
press.,
hPa
HPBL,
m
21 april, wed
wed2100:00+5ne3694100 4.6 1008410
03:00+4nne3593100 5.2 1008350
06:00+4n2493100 0.2 1008521
09:00+6nw238195 0.3 1009729
12:00+7w3373100 0.0 10101002
15:00+8wsw347444 0.2 1011869
18:00+10wsw356546 0.3 10101097
21:00+7ssw41076100 0.3 1012282
22 april, thu
thu2200:00+7s41081100 0.2 1012297
03:00+7ssw41087100 0.2 1013298
06:00+5ssw389553 0.1 1013160
09:00+10ssw58755 0.1 1014425
12:00+14ssw796043 0.8 10141394
15:00+15sw79567 2.1 10131828
18:00+14ssw61064100 1.4 1013889
21:00+11ssw6147399 1.8 1013513
23 april, fri
fri2300:00+9ssw41090100 0.5 1013500
03:00+8s379593 0.6 1012234
06:00+4wnw6993100 0.3 1014464
09:00+5w3686100 0.4 1015603
12:00+8wsw4559100 0.0 10151374
15:00+9wsw4654100 0.1 10151515
18:00+8w4654100 0.0 10141588
21:00+5w257497 0.3 1015149
24 april, sat
sat2400:00+3w34834 0.0 101574
03:00+1w36875 0.0 1014117
06:000wsw238820 0.0 101445
09:00+5w34675 0.0 1014556
12:00+8w565796 0.7 10131804
15:00+7wnw7853100 1.1 10141774
18:00+6wnw68575 0.1 10151767
21:00+2wsw310735 0.1 1016237
25 april, sun
sun2500:00+2wsw4117883 0.0 1015455
03:00+1wsw411836 0.0 1016356
06:00+1wsw51080100 0.0 1016754
09:00+3w69555 0.0 10151139
12:00+4w6861100 0.1 10161528
15:00+5w696297 0.2 10161481
18:00+5w686193 0.2 10161486
21:00+2wsw377390 0.3 1016123